Theta_e
299 297 296 296 296 296 298 299 301 303 303 304 303 304 310 313 312 312 309 310 313 316 319 317 316 319 320 316 314 313 313 312 311 311 311 310 310 311 312 311 311 312 312 313 312 313 316 315 313 314 313 313 314 314 315 315 314 320 323 318 321 330 326 320 321 325 323 316 313 313 311 312 316 315 315 314 314 322 329 326 329 327 320 322 321 316 322
299 298 297 297 296 297 299 301 302 303 303 303 303 307 313 310 309 312 310 311 314 317 320 321 319 320 317 312 311 312 311 311 311 311 310 310 311 312 312 310 311 312 312 313 312 312 315 316 314 315 314 313 314 313 315 317 315 319 324 321 321 322 320 322 324 324 325 324 322 321 314 312 315 313 314 312 308 317 325 325 331 329 318 317 317 315 321
299 298 297 297 296 297 300 302 302 303 302 303 305 308 311 311 312 316 313 310 314 318 318 320 321 321 317 313 314 313 310 310 311 310 310 309 310 311 311 310 311 311 312 316 314 311 314 315 314 316 316 314 313 313 314 315 315 320 326 328 329 323 324 336 333 318 317 323 324 320 312 311 316 312 311 313 312 314 317 321 329 323 314 317 318 319 325
299 299 297 297 297 298 300 302 302 302 301 302 305 306 310 314 315 315 313 310 312 315 313 311 313 316 314 313 316 314 310 311 310 310 310 309 310 310 309 310 312 313 315 317 315 312 312 314 315 316 316 314 311 313 316 315 317 324 327 331 334 325 322 336 339 326 323 325 321 314 308 310 313 310 310 314 315 316 318 322 324 318 318 325 321 319 323
299 299 297 297 297 297 299 302 302 302 299 300 305 306 308 313 313 312 311 311 313 314 312 310 310 312 312 312 313 312 309 310 311 311 310 309 310 311 309 309 312 313 315 317 316 313 312 314 315 315 317 316 313 312 314 317 322 326 321 324 332 323 314 321 327 324 320 317 312 307 307 308 307 307 311 313 316 320 319 316 314 314 320 322 317 318 320
299 299 297 296 296 296 299 301 302 302 299 299 303 304 305 309 311 310 309 312 315 314 314 313 310 309 312 310 309 309 309 309 309 310 310 308 309 312 310 308 308 309 311 314 314 314 315 315 315 313 315 318 317 315 313 315 321 320 315 322 332 326 316 312 312 314 313 311 310 310 308 308 307 308 311 311 315 317 314 310 311 313 315 313 311 315 315
298 298 298 296 296 296 298 300 302 302 300 298 300 301 302 305 309 309 308 310 314 314 313 313 309 307 311 311 307 308 309 309 308 308 310 309 308 310 311 308 306 305 307 310 311 312 314 315 314 312 312 316 318 317 315 314 316 314 313 318 324 323 318 313 311 314 314 311 311 312 309 309 308 308 310 313 314 313 311 310 312 314 314 313 313 314 312
298 298 298 296 295 296 297 299 301 302 301 299 299 300 300 302 304 306 306 308 311 309 307 308 307 306 308 309 308 306 306 309 308 306 308 309 308 309 309 307 305 303 304 307 307 308 309 310 311 310 310 313 315 314 313 313 313 314 315 315 317 317 316 318 323 322 315 313 312 311 309 310 310 311 313 316 315 312 313 313 315 316 312 310 313 314 312
298 298 298 297 295 295 296 298 301 302 301 301 302 301 299 300 301 302 305 307 306 304 304 305 306 306 306 307 307 306 305 306 307 306 306 306 306 308 308 307 304 303 305 306 306 306 306 307 308 308 307 309 310 310 310 310 310 313 315 314 316 317 314 318 327 324 315 313 312 311 311 313 315 314 314 317 314 311 310 309 311 313 311 311 316 314 309
298 298 298 297 296 295 296 297 299 302 302 301 302 302 300 300 301 303 306 307 304 302 303 304 305 306 305 305 305 305 305 304 307 308 307 304 304 306 306 307 305 304 305 305 305 305 305 306 305 305 306 307 307 307 307 307 307 310 314 314 315 321 322 319 323 322 315 313 314 316 317 317 316 313 312 313 312 308 307 307 306 308 310 314 315 310 305
298 298 298 297 296 294 295 296 298 300 302 302 302 303 301 301 302 304 308 307 302 301 303 303 304 305 304 303 303 303 303 303 305 308 307 304 304 305 304 306 309 307 304 303 305 304 304 305 305 305 307 308 309 309 307 307 307 307 312 313 312 320 324 318 318 319 314 313 318 319 317 314 311 309 310 310 308 306 307 306 305 306 308 309 308 305 304
298 298 298 297 296 295 295 296 297 299 301 302 302 302 302 301 302 305 308 306 301 301 303 302 303 304 302 301 302 302 302 302 304 307 307 305 305 305 304 305 308 307 303 303 305 304 304 306 306 307 307 307 307 308 306 308 308 306 308 311 310 312 314 312 316 320 314 311 315 315 312 312 309 307 307 307 305 305 305 304 304 305 305 306 305 305 304
297 297 298 297 296 295 295 295 296 298 301 302 301 301 301 301 303 305 308 306 301 300 302 301 300 302 302 301 302 301 302 302 303 305 307 306 305 304 303 302 303 303 302 303 305 306 309 311 311 310 310 309 309 309 306 306 308 307 306 310 311 312 312 311 315 318 314 309 311 314 312 310 309 308 307 307 307 308 308 306 304 304 305 304 304 304 304
297 297 298 297 296 295 295 295 296 298 301 302 301 302 301 301 303 305 306 307 303 299 301 302 301 302 302 302 302 302 302 302 303 304 305 304 304 303 301 301 301 301 303 304 306 311 314 313 315 315 314 311 311 313 310 306 308 309 306 307 310 313 315 313 310 312 315 313 311 311 309 307 308 309 307 305 305 307 310 309 304 303 304 303 302 304 304
297 297 297 297 296 295 294 295 296 298 300 301 301 301 301 301 303 302 303 308 307 301 300 302 302 302 302 301 301 303 304 304 304 305 304 302 302 301 301 301 300 301 303 304 306 311 312 311 312 313 313 311 310 312 311 306 306 308 306 306 308 309 312 313 309 310 317 318 311 308 308 307 307 307 307 305 303 303 308 310 306 303 303 302 301 303 303
297 297 297 297 295 294 294 295 297 299 300 301 301 301 300 300 302 302 303 308 308 302 300 301 301 301 301 300 300 302 304 304 304 307 307 304 302 300 301 301 300 300 303 305 307 309 311 310 309 310 311 311 309 308 308 308 308 307 306 307 308 309 312 314 311 310 314 315 312 310 310 308 305 305 306 305 302 302 306 309 305 302 302 302 301 301 301
297 297 297 297 295 294 294 296 298 299 300 301 301 301 300 300 300 302 304 306 305 300 298 300 300 300 300 300 300 301 303 304 304 305 307 305 302 300 301 301 300 300 302 306 308 309 310 310 309 310 311 308 306 308 310 310 310 308 309 310 310 312 316 315 311 311 312 313 311 310 309 307 304 305 306 303 302 305 309 308 304 301 300 300 299 299 299
296 297 297 296 295 294 295 296 297 298 299 300 301 301 300 300 300 300 303 306 305 300 298 299 299 299 299 299 299 300 301 302 304 305 305 304 302 301 300 300 300 301 302 305 308 307 308 308 307 308 309 307 307 310 310 310 310 308 308 310 309 312 315 313 310 311 312 313 310 307 306 305 303 304 304 302 304 310 310 306 301 298 298 298 297 298 298
296 297 297 296 294 293 295 297 297 298 299 299 300 300 299 299 300 299 302 306 306 301 297 298 298 298 298 299 300 301 300 300 302 304 303 303 302 300 300 301 301 300 301 305 308 305 305 306 305 306 308 307 308 309 307 307 308 306 307 309 309 309 310 310 309 309 309 310 308 306 305 304 303 304 302 302 307 309 304 300 298 298 298 298 298 298 297
296 297 297 296 295 293 294 296 297 297 299 299 299 300 298 298 299 300 301 304 306 302 298 298 298 297 298 299 300 301 301 300 302 302 302 302 302 302 304 305 302 301 301 304 306 304 302 304 304 304 304 304 306 308 307 305 304 303 304 306 304 305 308 309 307 306 307 308 307 305 304 302 303 304 301 301 303 302 298 298 298 298 298 298 298 298 297
296 296 297 296 295 294 294 296 296 297 298 299 299 299 298 297 298 299 300 302 306 304 300 298 298 297 297 298 298 299 300 299 300 301 301 302 302 303 304 303 301 301 300 301 303 302 301 302 303 302 302 302 303 305 305 305 304 301 301 303 302 302 305 306 303 303 305 305 304 303 302 299 298 301 300 298 299 298 297 299 299 298 299 298 298 298 298
296 296 296 296 295 294 295 295 296 296 298 299 299 300 300 298 297 299 300 301 302 302 299 298 298 297 297 297 297 298 298 298 298 298 300 302 303 303 302 301 301 300 299 300 302 302 302 301 301 301 302 302 301 301 302 304 304 300 299 303 303 300 301 303 301 299 300 301 301 300 300 298 297 299 298 298 298 298 299 299 298 298 299 298 297 298 298
296 296 296 296 295 294 295 295 295 296 296 298 299 300 300 298 297 298 300 300 301 301 298 298 299 298 297 297 297 297 297 298 298 298 299 302 304 303 302 302 300 300 302 302 301 301 301 300 300 302 302 301 301 302 301 302 302 299 299 301 300 298 300 303 300 297 298 298 298 298 297 297 298 298 298 298 298 298 300 300 298 298 298 298 298 297 297
296 296 296 296 295 294 295 295 295 295 296 297 299 300 300 298 297 298 300 300 302 303 300 299 302 301 298 297 297 297 297 297 298 298 298 300 302 303 303 301 300 302 304 301 299 300 301 300 301 303 302 300 301 302 301 301 301 301 302 303 299 298 302 303 300 300 302 299 297 297 297 297 297 298 298 298 298 298 299 299 297 297 298 298 298 297 297
295 295 296 295 295 294 295 295 296 296 296 297 299 300 300 298 297 299 301 301 302 302 301 301 302 299 297 297 297 296 297 297 296 297 298 298 298 299 300 300 299 299 300 299 301 304 303 300 301 302 301 300 302 301 299 300 302 301 302 303 300 299 302 301 298 301 302 299 296 298 297 296 297 298 298 297 297 298 298 298 297 298 297 296 296 297 297
295 295 295 295 295 294 294 295 296 297 297 298 298 299 300 299 296 298 300 299 300 301 301 302 301 299 297 297 297 296 297 297 296 297 297 297 298 298 298 298 299 299 299 300 302 303 301 301 301 301 300 300 301 301 299 299 300 300 300 300 300 300 301 301 299 300 300 298 298 298 298 297 298 298 298 298 297 297 298 298 297 297 298 297 296 296 296
295 296 296 295 295 294 294 295 296 297 298 299 299 299 300 299 296 297 300 300 300 303 303 303 303 301 298 297 297 296 296 296 296 296 296 296 297 297 297 298 299 301 303 305 305 304 303 303 302 301 301 300 300 301 300 298 298 300 299 298 300 301 300 299 300 301 300 299 299 299 299 299 299 299 299 298 297 298 298 298 297 298 298 298 297 296 295
296 296 296 296 295 294 294 295 296 298 298 299 299 300 300 299 296 294 297 299 300 302 302 302 302 301 298 298 298 296 296 297 296 296 296 296 296 297 296 297 298 301 303 304 304 303 302 301 300 301 301 301 301 302 301 301 301 301 298 297 299 300 299 300 303 302 300 299 300 300 300 300 300 300 299 298 298 299 299 298 298 298 297 296 296 296 294
296 296 296 296 295 294 294 294 295 298 298 298 299 300 301 300 296 293 294 297 299 300 302 302 303 302 299 298 297 296 296 297 296 296 296 296 295 296 296 295 297 301 303 302 300 300 300 301 302 301 300 300 302 300 299 300 300 299 297 297 298 299 299 301 303 301 299 299 300 299 298 298 298 298 298 297 297 298 299 298 298 297 295 294 294 294 294
296 296 296 296 295 294 295 294 295 297 298 297 299 301 302 301 297 293 293 295 297 300 302 302 304 304 301 298 297 297 296 296 297 297 296 296 296 296 295 296 297 299 300 300 299 301 302 302 302 301 300 300 301 300 297 297 298 297 297 298 298 299 300 300 301 300 298 297 298 298 297 297 297 296 296 296 296 297 298 298 297 296 295 294 293 293 293
295 296 296 295 295 295 295 294 295 297 297 297 298 300 301 299 296 294 293 293 295 299 301 301 302 302 301 299 297 296 297 296 297 297 296 296 297 296 295 296 297 297 299 301 299 300 302 301 300 300 300 301 303 301 298 297 297 296 296 298 299 299 299 299 300 299 298 298 299 300 300 299 298 297 297 297 296 296 296 295 294 294 295 294 293 293 293
295 295 295 295 295 295 295 295 296 297 298 298 298 299 299 297 296 295 293 292 295 300 301 301 300 300 300 300 299 296 296 297 297 297 297 297 297 296 295 295 296 297 300 301 298 298 302 303 300 299 300 302 303 301 297 298 298 297 297 299 300 299 299 300 300 299 299 300 300 300 299 299 299 298 298 297 296 296 295 294 294 294 294 294 294 293 293
294 295 295 295 296 295 296 296 296 297 298 298 298 299 300 298 297 295 293 293 297 300 301 300 299 298 298 300 299 296 296 299 300 299 300 299 296 295 296 298 297 297 298 298 297 300 302 302 299 298 299 301 301 298 297 299 300 299 299 300 299 299 299 300 299 299 299 299 298 297 298 299 298 297 296 295 295 295 294 294 294 294 294 294 294 293 293
294 294 294 295 296 296 297 297 297 297 298 298 299 301 301 298 296 294 293 294 298 301 300 299 299 299 299 302 302 297 296 299 300 300 301 301 296 295 298 300 298 298 298 298 299 300 301 300 299 299 299 300 299 298 297 298 298 298 299 300 300 299 300 300 299 298 298 298 297 297 297 296 296 296 296 295 295 294 294 294 294 294 295 295 294 293 292
295 295 295 296 296 297 298 298 297 298 299 299 300 300 298 297 295 294 294 296 299 302 302 300 298 299 300 303 304 300 298 299 300 299 301 301 297 296 298 298 297 299 300 298 298 299 299 299 299 299 300 299 297 297 298 298 298 299 299 299 300 299 299 298 297 297 298 299 298 298 296 296 296 297 297 297 295 294 294 294 294 294 294 294 293 292 292
296 297 297 297 296 297 299 300 299 300 300 299 298 296 295 295 295 294 295 297 298 301 302 301 299 300 300 299 300 300 299 300 300 299 300 301 299 299 299 297 299 302 301 297 298 300 300 298 298 298 299 297 298 300 300 298 298 300 299 299 300 300 299 298 297 297 298 299 299 298 297 297 298 298 297 296 296 294 294 295 295 294 294 294 294 293 291
298 298 298 298 298 299 301 300 299 299 298 297 296 296 295 296 295 295 297 298 298 299 300 299 300 302 301 299 300 299 297 299 299 299 300 300 299 299 298 297 299 302 299 296 299 302 300 298 297 298 299 299 301 304 302 298 298 300 300 299 300 300 299 299 299 298 299 299 298 298 298 297 298 297 296 296 296 295 295 296 295 295 295 295 294 293 292
299 300 300 300 301 301 301 299 298 298 297 297 297 298 299 299 298 299 300 300 300 301 299 298 301 304 300 298 300 299 298 299 300 300 301 300 297 298 299 298 298 298 296 297 301 300 298 298 298 297 300 301 300 299 300 299 299 300 300 300 300 301 300 300 300 299 299 299 298 298 298 297 297 297 296 296 296 296 295 294 293 293 294 293 293 292 292
299 299 299 300 301 300 299 298 298 298 297 297 298 299 301 300 299 300 301 300 300 301 300 300 303 303 300 299 300 298 298 300 300 300 301 300 298 297 298 298 297 296 294 297 300 298 295 297 298 297 300 301 298 297 299 300 299 300 300 299 297 297 298 298 297 298 299 298 297 298 297 296 296 297 297 297 297 296 294 292 292 293 294 293 293 292 292
297 297 298 299 299 298 297 297 297 298 298 298 298 298 298 298 299 300 300 299 299 300 300 302 303 301 299 302 302 298 296 299 300 299 299 299 299 297 296 296 297 295 294 297 300 298 296 297 297 296 299 301 299 298 300 300 300 301 300 296 293 294 296 296 296 296 296 296 295 296 296 295 295 296 296 297 297 297 295 293 292 293 294 293 293 293 292
296 296 297 298 298 297 298 298 297 298 298 298 298 297 297 299 301 300 298 298 299 300 300 301 301 300 300 302 303 300 297 298 299 299 299 300 300 297 295 297 297 294 294 297 299 297 296 296 296 298 302 302 299 299 299 299 300 302 298 294 293 295 296 295 295 296 296 295 295 295 295 295 295 295 295 296 296 295 294 293 293 293 293 293 293 292 292
296 296 297 297 297 298 299 299 298 298 298 298 297 297 297 298 300 299 298 299 301 300 299 299 299 299 300 300 301 300 299 298 299 299 298 300 300 297 295 297 296 293 296 300 299 295 295 295 295 299 304 302 298 299 300 299 300 301 298 294 294 295 295 294 295 295 296 296 295 295 295 296 296 295 296 296 295 294 293 293 292 292 291 291 291 291 291
297 297 297 298 299 299 299 299 298 298 298 297 297 298 297 297 299 299 299 300 300 299 298 298 298 299 299 299 299 300 299 297 298 299 298 298 298 296 295 295 295 296 299 300 296 294 295 295 296 300 303 300 297 299 300 298 299 299 297 294 295 296 296 295 295 296 296 296 296 295 296 296 296 296 296 295 294 293 293 292 292 291 290 290 290 290 290
298 298 298 299 299 299 299 299 299 298 297 297 297 297 298 299 301 301 300 300 301 299 298 299 300 300 300 299 299 300 298 297 298 299 298 297 296 295 294 296 298 300 299 297 295 295 296 297 298 300 300 298 298 299 300 299 299 300 298 296 295 295 295 295 295 295 295 295 295 296 296 296 296 296 295 294 293 293 292 292 291 291 290 290 289 289 290
298 299 298 298 299 299 298 298 298 298 298 299 299 299 299 300 301 301 300 300 300 298 298 300 302 301 300 299 299 299 299 298 297 297 298 296 295 295 296 297 298 297 295 295 296 295 296 298 301 301 299 299 299 299 299 299 299 298 299 298 295 294 294 294 294 293 294 294 295 296 296 296 296 295 294 293 293 293 293 292 291 290 290 289 289 289 289
298 299 297 297 298 298 297 297 298 299 299 299 299 299 299 299 299 299 300 300 300 299 299 301 302 301 300 300 299 299 299 299 297 297 297 296 295 296 297 297 297 296 295 295 296 295 296 300 303 301 299 300 300 300 300 300 298 296 298 300 298 295 294 293 293 293 293 294 295 295 295 295 295 295 295 294 293 293 292 292 291 290 290 289 289 288 289
297 297 296 297 298 298 298 298 299 298 298 298 298 298 298 298 299 300 300 300 300 301 300 300 300 301 301 300 299 299 299 298 297 297 297 296 295 296 296 296 295 295 295 295 296 297 299 301 302 302 301 300 299 299 300 299 298 298 299 300 300 297 294 293 293 293 294 294 295 295 295 295 295 295 295 294 293 292 292 292 291 290 290 289 288 288 288
297 296 296 298 299 299 299 299 299 298 297 297 297 298 298 299 300 301 302 301 302 302 301 299 299 300 300 299 298 299 299 298 297 297 297 297 296 296 296 296 296 296 296 295 297 299 300 300 300 301 301 298 297 299 299 298 298 300 302 302 300 298 294 293 293 294 294 294 294 294 295 295 295 295 295 294 292 292 292 291 291 290 289 288 288 287 287
297 296 296 296 297 298 299 300 299 298 298 297 297 298 299 299 299 300 300 301 301 301 301 300 300 300 299 298 297 297 297 297 297 296 296 297 297 296 296 296 296 296 297 298 299 300 301 300 299 300 301 298 296 296 298 299 299 299 298 298 298 297 295 294 295 295 295 295 295 295 295 296 295 295 295 293 292 291 292 292 291 290 289 288 288 287 287
296 296 296 296 297 298 299 299 298 299 299 298 298 298 298 298 298 298 298 299 299 299 299 300 299 298 297 297 296 296 296 297 296 296 296 296 296 296 296 296 295 296 299 301 301 301 301 300 298 300 301 299 296 295 298 300 299 296 293 294 295 296 295 296 296 296 296 296 296 295 295 296 296 296 295 294 292 291 291 291 291 290 289 289 288 287 286
296 296 296 297 298 298 298 298 298 298 298 297 297 297 297 298 298 298 297 297 298 298 298 298 297 297 297 297 296 297 297 296 296 296 296 296 296 296 296 297 298 299 301 301 300 299 299 299 298 299 300 299 297 296 297 296 294 293 293 294 295 295 296 296 296 296 296 297 296 296 296 296 296 296 296 295 293 291 290 291 291 290 289 288 288 287 286
296 297 298 298 298 297 297 296 297 297 297 296 297 297 297 297 298 298 297 297 298 299 299 298 297 297 297 297 297 297 297 296 296 296 296 295 295 296 296 298 300 300 300 300 301 300 300 300 301 300 299 297 296 296 295 293 292 292 293 294 294 294 295 295 295 296 296 296 296 296 296 296 296 296 296 295 292 290 289 290 291 290 289 289 288 287 287
Wind_Speed
31 33 36 38 41 42 41 42 43 42 39 31 23 14 2 1 3 11 18 15 8 10 2 2 1 1 4 4 5 5 5 6 6 6 6 6 4 2 1 2 1 1 1 1 2 4 1 4 3 1 1 0 2 3 7 7 5 3 2 2 2 3 4 3 1 3 4 4 2 6 7 6 6 4 4 5 3 2 4 5 3 1 2 1 3 1 4
31 32 35 37 40 43 42 42 40 37 36 30 17 7 2 2 3 8 19 24 8 4 1 2 3 3 3 3 5 5 5 7 7 7 7 6 5 1 1 2 2 1 1 2 4 4 2 2 3 1 3 1 2 8 9 7 5 2 1 2 1 2 2 3 3 3 5 6 5 6 6 5 3 1 3 5 6 6 3 1 3 3 1 1 4 2 4
30 31 34 37 40 43 42 42 38 31 32 30 14 1 2 4 2 4 12 21 12 3 2 2 2 3 2 2 4 4 4 6 7 5 3 5 3 2 3 4 3 3 3 2 3 4 4 0 4 3 2 0 3 5 5 4 4 2 1 3 3 3 2 3 4 2 1 1 2 2 3 3 2 2 5 5 7 8 3 2 4 2 2 1 4 3 4
30 30 33 37 39 42 42 43 39 30 28 26 12 2 1 2 3 3 6 10 7 1 2 2 2 2 2 2 3 3 3 4 5 3 1 3 5 7 8 7 6 5 5 4 5 7 6 4 3 4 3 3 1 4 5 4 4 5 6 5 4 4 2 3 6 6 5 5 5 4 1 3 3 5 7 5 5 5 4 4 3 2 2 2 1 2 2
31 31 33 37 39 42 43 43 40 32 28 21 8 2 4 2 2 4 4 4 5 4 5 5 4 4 1 1 4 4 4 5 5 2 5 6 5 7 10 11 8 6 5 5 6 8 8 8 6 5 5 4 3 4 5 4 4 7 6 4 4 5 2 1 5 5 5 5 3 1 3 3 2 5 7 6 5 5 6 5 1 3 5 3 4 3 6
31 31 32 36 39 41 42 42 40 34 29 24 11 2 4 3 1 2 3 2 1 2 5 6 6 9 6 3 6 9 10 10 8 5 6 11 10 5 7 12 12 10 6 5 4 6 7 8 7 6 6 5 5 6 5 4 5 5 4 3 4 6 1 2 3 2 1 3 4 5 5 4 4 5 6 6 5 5 5 2 2 4 5 2 2 8 8
31 31 32 35 38 41 41 42 41 34 29 30 21 6 3 3 2 3 3 2 2 2 6 6 6 12 8 5 9 11 11 10 9 7 5 8 11 7 6 8 12 13 10 6 5 5 4 4 5 5 6 6 3 4 4 5 5 5 4 4 3 4 1 2 3 4 4 5 6 7 8 6 6 8 7 6 5 6 5 3 3 7 7 5 7 12 8
30 31 31 33 37 40 40 41 41 36 32 31 22 9 5 3 1 4 3 3 4 5 6 4 7 10 8 6 8 9 10 9 8 10 8 5 6 7 6 7 9 11 11 9 6 4 3 1 3 3 5 6 4 3 2 3 6 6 4 3 3 3 1 2 4 5 4 4 6 8 7 6 6 8 9 8 8 8 7 5 5 7 6 4 8 11 7
30 30 30 32 35 38 39 40 41 36 34 27 13 7 9 4 3 4 1 2 6 6 7 6 6 7 7 6 7 7 9 9 5 7 10 8 7 5 5 7 8 9 11 11 7 4 3 2 5 5 3 3 2 2 1 1 4 5 3 3 3 4 1 2 6 4 3 3 5 6 6 7 8 8 10 9 7 7 6 5 6 4 4 4 8 8 4
31 30 30 31 33 36 36 38 39 36 33 25 8 7 15 9 4 4 2 3 6 5 5 8 7 5 6 8 9 9 8 9 6 4 7 9 9 6 5 6 6 7 10 10 6 6 6 6 7 6 5 5 4 3 4 2 2 1 2 2 2 3 3 2 4 3 3 3 4 6 6 6 4 5 6 4 4 9 8 8 10 6 4 4 5 4 0
31 30 30 30 31 34 33 35 38 35 32 25 11 9 16 12 4 4 3 5 6 5 5 8 6 4 8 10 11 11 11 12 9 4 3 6 7 6 7 7 5 4 4 4 7 6 6 7 7 5 3 5 5 4 5 5 2 2 3 2 2 2 5 2 2 4 3 4 3 6 4 1 3 5 3 2 9 14 12 8 9 9 6 5 4 2 1
30 30 30 30 30 32 32 32 34 34 29 24 15 13 20 16 5 2 5 5 5 5 5 6 6 6 10 12 11 10 11 11 9 5 3 4 6 6 6 7 5 2 2 5 6 6 5 4 3 3 4 5 5 5 5 6 6 4 3 5 2 0 3 0 1 4 3 2 5 4 2 4 5 2 3 8 13 16 14 10 9 9 7 6 6 4 5
30 30 29 30 29 30 30 29 31 32 28 24 19 18 23 20 7 2 4 4 4 6 3 4 9 10 11 13 11 9 10 10 10 8 4 4 7 8 6 6 4 2 3 4 5 4 3 3 4 4 5 5 5 6 5 5 7 6 3 4 5 4 3 2 1 3 2 1 4 3 5 3 3 1 2 5 7 8 10 10 9 8 6 5 5 5 6
29 29 29 29 29 28 29 28 29 30 28 23 20 21 25 23 10 1 2 4 4 5 3 3 8 11 11 12 10 8 10 11 10 9 7 6 7 8 8 8 7 7 3 2 4 3 3 3 3 3 4 5 5 4 5 5 6 7 7 6 6 7 4 3 3 2 3 4 3 2 3 1 2 3 2 1 2 1 4 6 3 5 5 4 4 5 7
28 29 28 28 29 27 27 27 28 30 28 23 20 22 28 27 15 3 1 4 4 5 6 4 5 7 8 10 10 7 7 8 7 6 6 7 7 7 8 11 12 9 4 3 3 3 3 2 3 3 2 2 1 2 3 3 2 2 3 3 3 5 5 5 5 2 3 5 3 2 3 4 3 4 5 3 1 3 5 7 3 5 5 3 5 6 6
26 28 28 28 28 27 25 25 26 28 28 24 21 22 27 30 23 10 1 3 5 3 5 5 4 5 5 5 8 7 4 5 5 4 5 7 8 8 9 12 14 12 7 4 2 3 3 2 2 2 1 1 2 2 2 3 3 5 7 7 6 4 2 4 5 2 3 5 4 3 3 4 5 5 7 8 4 1 6 6 3 4 6 4 5 7 6
26 27 28 28 27 26 24 24 24 26 27 25 21 21 25 30 28 16 4 3 5 3 3 5 5 5 4 4 6 6 4 4 4 2 3 5 6 8 10 10 11 11 8 4 3 3 3 2 2 2 0 1 0 1 2 2 3 6 7 8 8 7 4 3 4 3 3 4 3 1 2 2 3 5 7 8 5 4 7 4 1 3 5 6 5 7 6
26 26 27 28 27 25 22 21 23 24 25 24 20 18 22 28 29 19 7 4 5 2 3 6 7 4 3 3 2 3 2 3 3 2 2 3 3 5 8 7 6 7 6 4 3 4 4 3 3 2 1 2 1 1 1 2 2 3 4 4 4 4 3 3 3 2 2 3 3 1 1 1 3 5 7 7 4 6 5 3 4 1 3 4 6 6 5
25 25 26 27 26 24 21 19 21 22 24 25 21 17 20 27 29 22 10 3 4 3 2 6 8 4 2 3 3 3 2 2 2 2 2 3 4 6 6 4 3 4 4 4 3 3 3 3 3 1 2 3 2 1 1 2 2 2 2 3 3 3 3 3 3 2 3 2 3 2 1 2 4 4 6 6 4 4 2 2 2 1 3 4 5 4 4
24 25 26 26 25 23 20 18 19 20 22 25 23 17 18 24 27 23 12 2 4 3 2 6 9 5 3 4 4 3 3 3 3 3 1 2 5 5 4 3 4 4 4 4 3 2 3 2 3 2 3 3 2 1 1 2 4 4 2 2 2 2 2 3 3 2 2 3 3 2 2 3 4 3 5 7 4 2 1 2 2 2 3 4 4 3 3
22 23 25 25 23 22 19 17 18 18 19 23 23 19 19 22 24 22 13 2 5 3 1 4 9 10 8 7 6 7 6 4 3 2 1 3 4 3 4 1 3 2 2 2 2 2 2 1 3 2 2 2 2 2 2 1 3 6 3 3 2 2 1 1 1 2 2 3 2 2 2 4 5 4 3 3 2 2 1 2 2 2 2 2 3 3 2
22 23 24 24 22 21 18 17 17 17 18 21 22 20 20 22 23 20 12 4 5 3 1 4 8 12 13 10 8 9 10 7 5 4 3 2 3 3 3 1 3 1 1 2 2 2 2 1 1 1 2 3 2 3 4 2 1 5 5 4 3 1 2 3 2 3 3 3 2 2 3 3 5 6 5 3 3 2 3 5 3 2 2 1 3 3 4
21 22 23 22 21 19 17 16 16 15 16 18 21 20 19 22 23 18 10 6 5 5 5 5 6 8 10 10 8 9 10 9 8 5 4 3 2 2 2 2 2 1 1 2 3 1 1 1 1 1 2 2 2 3 4 3 1 2 3 3 2 1 1 4 4 4 5 4 4 3 4 4 4 4 4 4 3 1 3 5 3 3 3 3 3 3 4
21 21 21 21 20 18 16 15 15 14 14 15 18 18 17 19 22 18 10 6 4 3 5 6 4 2 3 5 6 7 7 8 8 5 4 4 3 2 2 1 0 2 3 2 2 1 1 1 1 2 2 1 2 3 3 2 1 1 2 2 3 3 2 4 4 3 4 3 2 2 2 4 4 4 3 3 3 2 2 4 2 1 1 2 2 2 3
19 20 21 21 19 17 15 15 14 13 12 13 15 16 16 18 20 16 8 4 2 3 2 4 3 0 1 3 5 6 5 6 7 7 5 5 7 4 1 3 1 1 2 2 1 4 3 1 1 3 2 1 2 2 1 0 1 1 2 1 2 2 2 3 3 2 3 3 3 4 2 3 3 4 3 2 3 2 1 1 2 1 2 1 1 2 2
18 19 20 20 19 16 14 14 13 12 11 11 13 14 14 15 18 16 10 4 2 3 3 1 4 3 4 3 3 4 1 4 6 7 5 5 6 4 1 1 2 1 1 1 3 3 2 1 2 2 1 1 2 1 1 0 1 1 1 2 3 2 3 1 2 3 3 1 3 4 1 2 1 3 2 0 2 2 1 2 2 3 2 1 1 2 3
17 18 19 19 18 16 14 12 12 11 11 11 11 9 8 11 15 16 13 9 3 1 2 1 3 6 7 4 5 5 0 4 4 6 3 2 3 1 1 1 1 3 3 3 3 2 3 3 2 2 2 1 1 1 1 1 1 3 2 3 2 3 2 1 2 3 1 2 3 1 1 2 3 3 3 3 0 3 3 3 3 3 2 1 2 4 5
17 17 19 18 18 16 14 12 10 10 11 12 10 5 4 8 13 14 12 11 6 3 2 2 4 6 6 6 6 6 3 3 3 4 3 3 3 1 3 0 2 2 2 2 2 2 2 2 1 1 1 0 1 2 2 2 3 3 2 3 1 3 3 2 3 3 4 5 5 4 3 2 5 5 5 4 1 5 4 2 2 3 2 2 3 4 4
17 18 18 18 18 16 13 12 10 8 11 13 10 4 4 4 9 13 12 11 8 3 2 1 3 3 2 4 5 4 2 2 3 3 2 3 4 3 5 2 1 3 3 3 2 1 0 2 2 1 1 2 2 1 2 2 2 0 2 2 0 2 3 5 6 4 3 3 4 4 3 2 4 4 4 3 2 4 3 2 2 3 3 4 4 5 4
18 18 18 17 17 15 13 12 8 7 11 12 7 5 4 1 6 12 12 10 9 4 2 2 2 3 3 4 5 5 2 4 5 2 1 1 3 6 6 4 1 2 2 2 1 1 1 2 1 2 2 2 4 1 0 1 1 1 2 1 1 2 2 3 5 4 2 1 2 2 3 2 3 3 2 3 3 3 1 2 2 4 5 5 6 5 4
18 18 17 16 16 13 12 11 7 6 10 10 5 4 2 1 5 12 13 11 9 5 2 1 1 3 4 3 3 4 5 4 5 4 3 3 4 6 5 3 2 1 2 1 1 2 2 2 1 2 3 1 4 2 2 3 2 1 1 2 3 4 4 3 3 4 4 3 2 2 2 1 3 4 3 3 3 3 2 2 4 6 6 5 5 3 3
18 17 16 15 14 12 10 9 6 5 7 7 4 2 1 1 6 12 13 11 9 3 3 1 2 1 2 3 2 4 6 6 4 4 2 2 2 2 2 2 1 1 3 2 1 1 2 2 1 1 2 1 3 2 2 3 3 3 3 4 3 3 5 4 3 3 3 3 4 4 4 4 3 3 3 4 5 3 3 4 5 6 5 3 2 3 5
17 16 14 13 11 9 9 7 6 6 6 6 4 3 2 3 8 11 11 10 7 0 3 2 1 2 2 2 1 4 6 5 3 3 2 2 0 1 2 2 2 1 1 1 1 2 1 1 2 2 3 1 3 3 1 2 4 6 6 5 4 4 5 4 3 4 2 1 1 1 3 4 4 4 3 3 3 2 4 4 4 5 5 4 3 3 6
16 14 13 11 8 7 6 6 6 7 8 7 6 5 4 6 9 10 9 7 4 1 0 2 1 2 3 2 2 3 3 2 2 2 3 3 1 1 1 3 3 2 1 1 1 1 2 1 2 1 2 2 2 2 1 3 5 6 6 5 4 4 4 3 3 3 1 2 1 2 5 5 2 1 0 1 2 2 2 1 2 3 4 4 3 4 6
14 11 11 9 6 6 6 6 6 6 5 5 5 6 7 9 10 8 5 3 2 2 1 1 1 1 2 3 3 4 2 2 1 2 2 2 2 0 1 1 2 2 2 1 0 1 2 2 3 2 2 1 1 1 3 5 6 6 6 6 5 4 4 2 1 2 2 1 1 2 2 3 3 1 2 2 1 2 2 1 2 2 2 2 3 4 5
11 9 8 6 6 7 6 4 3 3 4 5 10 12 12 11 9 5 4 3 1 2 1 1 1 0 0 0 3 3 2 3 2 2 1 2 2 1 2 2 1 3 1 1 1 2 3 2 2 1 2 2 3 4 5 8 9 8 7 7 6 5 4 4 5 3 1 2 1 1 1 4 3 2 2 4 2 1 2 2 3 2 1 1 3 4 5
9 8 7 6 5 5 4 3 3 5 7 10 13 13 10 7 4 3 2 2 3 4 2 1 1 3 2 2 2 2 2 2 2 3 2 2 2 2 2 1 1 2 2 2 1 3 2 0 2 1 3 3 4 6 6 8 9 8 7 6 5 5 5 5 5 4 2 4 3 2 0 3 2 2 3 4 2 1 1 2 4 3 3 4 4 4 6
8 5 4 3 1 2 2 2 4 9 12 13 11 8 5 2 1 1 1 0 1 2 1 2 2 3 1 1 2 1 1 1 2 2 1 1 2 2 1 1 1 1 1 3 4 2 0 1 1 2 4 4 2 2 3 5 6 5 6 6 5 5 5 4 5 5 2 1 2 2 1 2 3 3 3 4 3 3 3 6 7 6 6 7 6 6 7
7 6 6 4 2 0 2 4 7 11 13 10 5 2 1 1 2 1 2 0 1 1 1 2 3 3 3 2 2 2 2 3 3 2 2 2 1 2 1 1 2 1 1 3 4 1 2 2 1 1 3 4 1 2 3 5 6 5 5 6 6 6 6 5 5 5 5 5 5 5 4 4 5 4 4 4 4 5 6 8 8 8 9 9 8 7 8
8 8 5 2 1 5 8 8 7 8 7 4 1 1 1 1 0 1 1 0 0 2 2 3 3 3 3 4 2 1 1 2 2 1 2 2 2 0 1 1 2 1 1 3 4 1 1 1 2 2 3 4 3 4 4 5 6 5 5 6 8 9 9 8 6 7 8 7 6 7 7 6 7 6 5 5 5 5 6 7 8 8 9 10 8 8 8
9 7 3 3 7 13 14 9 4 2 1 1 1 1 1 1 2 1 0 1 2 2 2 2 1 1 1 3 3 1 1 1 2 2 1 2 2 1 1 1 1 1 1 4 3 0 1 0 2 3 4 5 5 5 5 5 6 5 5 7 9 10 10 8 6 7 8 6 5 7 7 6 5 5 4 5 6 6 7 7 7 5 4 6 7 7 7
7 6 7 10 13 12 9 5 1 1 1 1 1 1 1 2 2 1 1 1 2 2 1 1 2 2 1 2 3 2 1 1 0 2 2 1 2 1 1 1 1 1 2 5 2 1 1 1 2 4 5 5 6 5 5 6 6 6 6 8 10 10 10 9 7 6 7 7 7 7 6 4 3 4 4 6 8 8 6 4 2 2 3 2 3 5 6
5 6 7 8 7 4 2 1 0 1 1 2 1 1 2 2 1 1 2 2 1 1 1 0 2 2 1 2 1 1 1 1 1 2 1 1 2 0 1 1 1 2 4 3 1 1 1 2 3 5 5 4 5 6 6 6 6 6 6 9 11 13 12 11 9 7 6 7 8 8 6 5 6 7 7 6 7 6 2 2 2 4 5 6 7 7 6
4 3 2 2 2 0 0 1 0 1 0 0 1 1 1 2 2 2 2 2 2 2 1 0 2 2 1 0 1 1 1 1 2 1 0 1 0 1 0 2 2 3 2 1 1 1 3 3 3 5 4 3 4 5 6 5 5 5 6 7 11 13 13 11 9 8 6 7 9 9 7 7 8 8 7 6 6 5 1 3 3 4 5 6 7 7 7
4 1 1 2 2 1 0 1 1 0 1 2 2 3 2 2 2 2 2 3 2 2 2 2 4 4 1 1 1 1 0 1 1 1 1 0 1 1 2 3 2 1 1 1 1 2 3 3 4 4 3 5 6 5 5 5 6 7 7 6 7 10 11 9 8 8 7 8 10 10 9 10 10 9 8 8 8 6 3 3 2 3 5 7 7 7 7
2 0 1 1 2 2 0 0 1 1 1 1 2 1 2 3 3 3 3 1 1 2 2 2 4 4 0 1 1 0 1 1 1 1 1 1 0 2 2 1 1 1 1 1 2 3 4 5 5 4 4 6 6 6 6 6 5 6 7 6 6 8 10 11 10 10 10 11 12 11 11 12 11 10 10 10 9 6 4 4 2 3 5 7 8 7 8
1 1 1 1 1 2 0 1 2 2 2 2 3 4 4 4 3 2 2 0 2 3 1 1 2 2 0 0 0 0 0 1 1 1 1 1 1 2 1 0 1 1 1 2 3 4 5 5 5 4 4 5 6 6 6 6 5 6 7 7 7 8 10 11 11 11 12 13 13 12 13 14 12 10 10 10 9 6 7 5 2 3 6 7 8 8 8
1 1 1 1 1 1 2 2 2 3 2 3 4 4 4 3 2 3 3 1 2 2 2 2 2 1 1 1 1 1 1 0 0 1 1 1 0 1 1 1 2 2 2 3 5 5 5 4 4 4 4 5 6 6 6 5 5 6 7 7 7 8 10 10 11 12 14 15 14 13 14 15 13 11 9 9 8 8 7 5 4 4 6 7 9 9 8
1 0 0 1 1 2 3 2 4 4 4 4 4 4 4 5 4 4 4 1 2 3 3 3 2 1 1 0 0 1 1 1 1 1 1 1 1 1 1 2 2 3 3 4 4 5 5 3 3 4 4 5 5 5 5 6 5 5 6 8 10 11 12 12 13 14 15 15 14 15 15 14 14 12 10 8 9 10 9 7 6 6 6 6 7 8 8
1 1 1 1 1 3 3 3 3 4 5 4 4 4 4 4 5 5 4 1 1 2 1 2 2 0 1 0 1 0 2 2 1 1 2 2 2 2 2 3 3 4 4 4 4 5 4 2 2 3 5 5 5 5 5 6 5 5 8 11 13 14 14 15 15 15 16 15 15 16 16 15 15 14 12 10 11 13 11 9 9 8 6 5 5 6 7
2 2 2 3 3 3 2 1 2 4 5 5 5 5 4 3 3 4 3 1 1 1 1 0 1 0 0 1 1 1 2 1 1 2 3 2 2 2 3 4 5 5 4 4 4 4 3 3 4 5 5 5 6 6 7 7 8 9 10 12 13 13 14 14 15 16 17 17 16 16 17 16 17 16 15 13 12 13 12 11 11 10 8 6 5 5 6
2 2 2 3 4 4 4 3 4 4 5 5 5 4 3 3 5 5 2 1 1 0 2 2 1 1 1 2 2 1 1 1 1 2 3 3 2 3 5 5 5 5 5 4 4 3 3 3 4 5 5 6 7 8 8 8 9 10 12 13 13 13 13 12 12 14 17 17 16 17 17 17 17 16 15 12 9 11 12 12 13 13 10 8 7 6 6
Wind_Direction
0 2 4 4 6 6 4 4 4 5 3 353 348 352 332 107 286 283 334 2 143 146 57 217 164 259 218 226 240 236 259 267 275 284 281 276 260 250 284 275 275 300 241 163 84 43 54 220 222 156 97 165 142 76 50 46 36 51 75 314 316 72 75 63 342 298 304 303 347 46 37 44 61 21 12 54 29 35 138 174 188 112 341 353 109 193 271
0 2 3 4 7 8 7 6 5 6 6 355 344 349 308 296 274 285 345 7 38 131 101 184 211 262 255 263 250 242 254 255 260 273 282 283 266 207 51 343 317 335 4 81 88 65 62 266 286 110 117 293 34 49 45 55 56 28 184 176 69 58 89 83 55 360 344 348 352 1 5 24 63 340 2 43 31 24 40 29 61 72 296 140 123 213 251
0 1 4 5 7 9 10 9 6 6 6 359 348 322 278 320 313 273 342 6 26 116 195 211 211 264 290 286 260 258 263 249 241 241 293 332 351 57 28 357 9 19 18 47 69 76 101 190 330 13 83 43 75 76 57 54 58 32 162 118 96 103 120 105 110 142 212 317 283 290 335 345 352 6 11 29 36 35 40 38 53 68 279 64 112 183 247
1 1 4 6 8 10 12 11 10 9 8 4 351 316 349 358 9 331 329 3 28 149 259 350 7 315 307 307 286 267 272 277 251 197 94 15 47 56 25 13 33 22 18 48 32 26 59 75 22 15 1 344 71 118 120 103 94 91 76 62 77 90 78 107 128 151 177 185 212 233 29 25 342 337 350 9 35 45 79 84 70 129 106 13 300 166 39
2 2 5 8 10 12 14 13 12 14 16 15 3 333 20 48 33 7 340 335 357 354 348 0 358 340 9 27 335 335 351 345 334 11 36 18 35 66 39 29 40 16 5 59 30 4 35 52 29 357 339 336 15 56 76 76 77 87 72 41 80 84 39 111 119 141 182 175 185 312 41 50 356 340 346 357 28 51 75 89 171 163 97 12 303 70 72
4 2 5 9 12 14 16 15 15 17 23 32 43 32 14 40 38 358 1 328 333 1 326 316 355 15 22 44 25 16 23 28 11 358 32 27 18 51 52 35 41 30 19 74 45 353 29 41 7 345 344 343 7 21 21 22 45 69 41 8 90 104 145 213 115 94 114 96 66 46 53 51 34 32 12 359 29 73 87 111 194 141 117 160 134 85 80
4 4 5 9 14 17 17 18 17 17 25 40 51 49 351 29 22 328 348 336 274 274 286 288 28 31 15 26 35 24 25 36 27 9 24 27 18 39 63 41 44 40 34 68 65 12 36 29 341 350 355 337 358 29 4 342 6 48 39 8 77 102 214 221 114 66 27 40 55 52 50 47 39 34 24 18 47 80 80 48 64 91 105 147 113 83 64
3 4 6 8 15 18 18 20 19 18 25 39 50 47 8 19 357 329 346 344 334 354 347 345 50 39 17 27 34 27 27 28 31 34 39 38 17 31 60 51 44 44 44 56 62 52 91 146 277 323 351 341 358 35 14 325 345 17 33 1 32 80 218 237 91 69 348 352 50 57 60 76 65 28 11 18 38 48 46 23 25 66 81 93 87 76 48
4 4 6 8 15 19 19 21 22 21 27 33 42 32 10 344 286 326 11 9 354 9 12 10 40 33 12 17 20 28 35 24 24 42 39 44 40 30 65 66 42 36 38 37 27 2 355 273 260 264 281 296 312 328 323 12 6 5 16 15 38 81 108 3 65 80 285 309 56 61 59 71 62 28 2 3 37 61 55 24 17 66 121 91 65 68 31
5 5 5 6 14 19 20 23 23 24 29 32 29 6 5 356 329 347 86 77 5 2 20 22 37 29 358 7 22 30 33 22 32 55 24 27 43 49 68 78 63 43 29 10 336 310 303 288 281 271 256 261 265 266 281 327 53 55 45 44 50 97 100 74 86 100 271 282 85 77 55 46 26 349 336 337 75 88 71 34 19 28 98 98 77 95 244
4 5 6 6 12 18 19 22 24 25 28 29 23 0 1 358 333 340 58 75 5 348 28 29 31 18 359 13 27 27 22 18 23 51 30 9 22 47 63 71 79 66 27 315 281 281 278 271 271 263 267 298 302 287 293 310 312 169 124 81 354 63 94 136 129 112 254 276 68 68 50 59 256 289 334 89 102 88 77 53 23 22 44 79 100 117 359
4 4 6 7 11 17 18 20 23 26 28 27 24 14 7 1 340 347 62 76 10 358 37 31 14 12 13 21 26 19 17 16 8 18 59 21 10 29 52 63 67 47 302 279 290 306 306 298 297 303 328 332 321 316 308 299 291 269 155 136 181 91 95 132 99 118 199 289 65 72 256 204 190 219 61 100 107 98 89 70 37 29 39 55 59 31 3
5 4 5 7 10 15 18 18 21 23 26 26 24 20 14 11 14 67 77 85 39 9 16 16 14 19 21 21 19 13 11 11 6 10 30 32 32 36 31 33 34 316 279 296 323 350 14 6 360 342 335 344 346 336 310 271 272 274 248 166 161 165 155 175 169 132 155 112 101 166 226 195 143 105 63 88 91 88 81 59 26 11 19 38 40 15 356
5 4 5 7 10 13 16 18 20 21 23 25 25 23 19 17 20 50 69 85 67 17 7 17 10 16 24 19 14 13 12 7 5 8 11 17 32 35 18 358 330 301 299 7 9 36 64 32 18 360 342 1 9 334 294 264 239 231 244 233 172 150 146 166 206 190 149 152 164 177 190 170 23 344 320 90 78 99 111 95 40 349 3 35 39 16 359
3 4 5 6 9 12 15 17 20 20 21 25 29 28 23 18 15 12 103 107 98 36 25 27 360 6 22 17 12 17 14 4 355 349 358 10 18 14 359 348 338 331 354 39 25 36 63 63 58 35 347 8 4 284 299 300 256 219 282 272 177 156 163 176 199 211 111 123 153 167 179 206 245 284 283 277 191 178 143 118 82 336 333 15 49 29 3
3 4 5 6 9 12 15 19 20 20 21 25 30 32 26 20 18 19 42 108 97 59 10 12 20 27 30 16 16 25 18 357 350 342 350 0 1 354 343 344 353 4 19 27 20 41 48 60 103 119 217 220 219 268 319 342 324 343 2 14 36 51 94 142 154 170 114 125 159 182 183 208 233 267 294 305 302 130 107 103 77 340 319 332 39 43 17
2 4 4 6 9 12 16 19 20 21 22 23 27 30 26 21 19 20 29 84 81 72 343 12 43 40 32 20 11 16 10 345 352 23 1 334 333 346 342 338 354 11 21 29 23 30 41 30 45 79 252 295 357 317 337 2 340 337 351 8 21 25 24 64 103 148 151 131 143 161 149 190 255 278 289 295 310 51 89 124 235 338 342 344 37 55 34
1 3 3 5 10 14 17 19 19 21 21 21 25 31 28 21 19 23 40 85 83 68 357 36 62 54 40 54 21 14 22 349 351 22 351 317 322 343 335 327 348 3 11 38 36 19 34 25 9 56 48 327 11 87 5 13 353 334 354 7 10 12 8 38 89 101 63 91 105 98 98 270 285 289 294 300 342 60 91 176 231 308 22 33 61 68 46
360 1 2 5 10 14 17 18 18 19 19 18 21 29 30 23 20 23 32 70 91 81 25 52 67 59 38 66 52 19 15 7 30 49 11 335 324 319 313 320 359 358 359 39 48 27 36 15 333 41 52 340 345 87 33 19 9 343 21 40 20 11 2 12 48 31 6 63 101 104 90 289 273 283 326 355 55 85 113 163 161 93 67 59 64 75 63
360 1 1 5 10 15 17 16 15 16 18 16 16 20 26 25 21 21 21 65 106 74 40 62 67 56 39 70 85 70 32 24 49 67 72 287 305 335 6 360 349 356 9 31 36 20 31 1 316 12 41 337 328 62 8 20 32 18 45 76 31 15 21 14 12 354 7 54 69 95 92 331 309 322 4 26 74 136 219 147 114 72 70 60 45 58 65
0 0 1 5 10 15 16 15 12 13 15 15 15 17 22 22 20 18 15 73 118 74 2 69 67 61 62 77 105 114 98 83 84 81 79 272 303 34 76 306 303 350 19 27 33 359 6 344 310 346 19 340 353 18 344 14 29 3 18 95 60 12 51 75 9 341 31 58 52 92 88 14 16 66 80 77 133 186 190 111 61 19 54 67 34 14 5
359 359 0 4 9 12 15 15 11 10 12 14 17 21 18 13 14 17 22 71 110 83 95 107 77 65 66 68 77 91 95 98 101 94 81 352 340 51 92 3 329 352 14 73 72 357 336 342 320 359 26 358 2 9 5 66 77 337 355 68 71 11 117 120 87 62 83 89 67 92 100 57 54 86 115 135 144 159 131 110 80 9 350 32 38 12 341
357 357 359 3 7 10 12 13 11 8 8 13 20 23 20 12 8 13 32 70 79 54 50 63 65 57 52 50 59 74 81 81 77 72 80 71 13 3 46 31 3 343 6 99 131 204 258 218 240 63 56 8 12 30 21 46 106 339 9 60 53 349 83 100 101 110 104 72 29 57 97 95 80 93 118 122 111 101 106 100 68 1 356 11 32 23 349
354 356 359 3 6 7 7 10 12 8 6 13 19 21 25 20 10 8 27 56 58 48 30 26 42 70 26 20 45 62 70 70 57 29 39 85 80 15 327 298 341 20 352 316 193 142 82 226 253 66 77 52 65 77 48 19 40 61 44 23 336 329 19 69 86 111 107 77 339 334 108 115 103 104 116 103 75 48 87 97 72 21 60 56 48 40 3
352 355 360 3 4 4 3 4 10 12 9 11 15 18 25 23 14 16 35 46 41 94 72 354 334 356 95 57 50 52 72 76 49 18 25 87 104 111 231 254 257 351 301 292 59 68 47 349 35 65 77 90 84 88 83 344 263 102 75 336 290 321 33 69 64 63 108 151 245 276 215 164 118 92 93 75 56 35 30 98 114 118 114 108 75 51 16
350 354 357 360 2 3 360 359 6 12 10 5 6 13 22 21 17 24 38 34 22 89 83 300 285 340 36 58 19 359 77 103 61 40 48 91 106 112 158 277 333 343 250 31 55 79 92 49 68 89 90 76 98 130 186 226 298 53 86 250 270 5 43 85 87 61 70 150 294 323 307 218 60 56 50 198 139 137 343 22 65 69 55 30 9 4 342
347 349 352 355 359 0 356 356 1 5 4 1 359 4 22 31 29 29 30 28 37 79 34 327 272 325 347 334 334 352 171 163 98 72 70 90 106 112 250 235 7 11 30 30 18 63 82 41 46 153 206 309 54 81 229 237 67 67 34 305 324 56 70 74 84 76 52 264 270 323 90 257 285 326 328 302 162 105 73 46 44 35 20 13 350 343 342
343 345 346 350 356 359 355 352 356 358 355 351 350 1 43 43 38 36 31 30 47 137 179 256 273 310 329 315 333 19 79 173 130 101 84 40 46 324 289 260 112 78 65 54 16 35 59 14 330 216 220 282 39 357 318 359 49 56 7 328 4 123 153 148 127 154 205 222 217 188 151 219 263 290 313 312 19 84 79 54 14 354 353 25 27 13 9
338 340 342 345 352 356 353 351 352 353 349 344 347 36 103 70 35 33 30 27 35 75 142 342 310 305 306 288 303 351 63 80 71 111 117 38 18 303 300 332 139 161 134 107 82 50 262 242 229 231 228 139 112 353 330 35 61 62 257 284 24 129 148 149 148 161 204 224 215 191 164 213 261 285 315 330 52 88 78 6 355 355 359 26 50 54 49
334 335 337 342 349 351 352 352 346 343 350 351 359 53 72 38 15 22 23 21 22 35 94 71 339 293 290 284 286 296 326 36 40 46 192 3 319 291 300 316 254 170 96 73 111 171 253 272 282 298 299 101 107 120 249 97 110 239 233 194 134 98 97 128 136 132 141 202 205 176 161 202 270 293 331 7 50 77 54 355 22 23 23 49 72 72 57
331 331 333 339 344 347 350 350 341 338 355 5 31 66 65 270 346 8 12 7 4 20 95 112 292 294 309 300 267 290 317 349 358 325 277 260 282 284 290 299 261 156 96 85 165 176 209 243 301 314 305 70 102 127 153 118 107 260 186 138 130 110 100 110 120 122 135 136 87 50 33 7 349 348 352 350 353 11 25 33 33 27 30 56 78 68 26
329 328 331 336 341 347 350 345 332 329 349 6 28 70 166 246 339 353 357 352 349 24 106 52 324 304 313 289 279 345 353 347 344 338 312 281 294 299 291 287 270 146 128 123 121 246 215 192 176 257 272 118 100 106 118 124 160 204 176 145 134 117 123 138 132 114 122 120 85 38 347 328 325 309 279 278 299 344 49 58 37 24 17 21 43 28 0
326 325 330 331 335 346 349 338 321 313 320 329 326 303 299 347 344 340 342 343 340 353 133 86 339 258 278 284 314 6 359 344 351 17 345 281 269 47 332 322 359 42 86 132 190 248 234 166 158 246 284 327 98 108 133 194 198 193 175 165 164 137 129 133 109 82 62 21 82 130 236 254 263 267 265 283 323 35 80 71 28 6 351 342 355 9 353
325 326 329 328 329 341 342 326 310 311 317 321 314 305 323 340 336 329 328 333 336 321 91 84 117 272 310 356 357 328 337 342 353 3 325 287 242 129 301 325 4 7 303 240 193 277 298 275 164 199 282 314 90 106 245 230 195 173 168 180 176 133 107 96 85 82 7 320 343 208 213 214 223 270 311 44 36 58 94 88 8 346 345 348 356 355 342
328 328 327 322 320 325 322 312 308 315 326 328 316 314 320 321 321 322 319 325 22 37 336 16 113 289 343 11 320 298 344 39 336 282 276 289 300 193 155 17 356 307 251 206 138 280 259 208 169 181 248 230 145 191 225 201 181 169 165 176 175 137 111 115 176 219 264 329 7 280 241 135 125 181 197 158 91 13 6 329 314 334 349 338 323 330 332
333 329 320 312 315 323 328 336 343 345 343 325 316 316 314 308 302 288 260 252 197 167 206 353 25 227 143 256 272 287 17 36 326 300 318 327 322 350 81 75 308 270 245 74 9 273 255 207 166 223 267 210 195 229 210 177 176 182 175 178 182 163 154 177 185 190 296 359 7 284 108 108 129 215 189 153 151 23 16 338 315 329 332 272 286 302 302
341 326 308 296 304 330 359 42 39 357 331 319 318 318 311 297 287 274 260 248 216 196 165 93 261 232 190 184 246 297 25 15 322 341 354 324 301 325 46 68 267 271 347 11 277 240 251 247 130 176 252 235 223 233 207 172 173 178 166 169 180 162 156 169 158 136 34 355 353 321 93 121 153 201 151 146 187 302 10 272 271 260 226 227 246 269 278
352 348 345 343 2 35 38 20 352 333 319 313 317 322 317 318 47 335 304 304 188 213 160 126 236 252 218 185 253 285 34 10 355 7 347 296 308 335 24 56 249 267 341 303 258 216 66 357 129 182 247 268 262 225 182 155 155 152 147 160 175 161 152 158 140 125 121 309 300 283 237 160 184 205 171 174 212 232 228 245 256 247 225 225 242 267 283
2 20 33 47 76 110 309 314 313 311 310 311 322 337 341 44 58 329 282 231 137 247 220 183 224 228 181 179 258 305 52 66 37 4 309 290 307 311 342 351 302 316 5 293 279 308 19 319 282 214 265 290 302 162 156 134 136 150 156 161 166 158 156 164 165 163 180 204 215 212 191 173 187 197 185 194 230 250 251 256 263 254 236 233 250 277 290
20 24 26 43 351 315 316 312 302 302 312 329 15 58 27 9 341 223 227 237 262 236 212 201 221 222 163 152 185 297 42 85 100 182 245 268 272 252 52 334 283 306 344 279 278 336 74 290 300 299 276 266 220 193 179 146 147 171 175 160 160 165 167 174 189 199 200 200 203 208 212 210 203 196 191 205 224 245 262 269 276 270 248 236 250 285 304
12 13 2 307 310 316 317 315 304 300 352 31 10 12 30 270 266 250 184 286 276 247 207 158 144 317 63 113 130 175 256 226 158 139 155 282 293 68 96 262 272 37 283 256 259 59 83 285 295 281 254 229 205 194 174 152 162 188 185 166 166 171 171 168 173 186 189 186 191 204 213 218 213 203 211 233 242 253 264 269 281 291 267 243 260 299 329
328 315 305 304 307 310 314 326 354 69 53 37 8 339 270 246 272 312 308 235 236 243 260 116 145 177 178 123 128 150 211 250 71 81 78 285 278 137 158 258 337 44 247 249 258 36 15 293 277 271 254 226 204 192 172 168 185 200 190 175 170 166 163 161 162 175 187 188 186 187 187 193 216 233 245 265 278 283 275 261 289 17 46 44 1 5 20
294 280 292 305 310 307 308 326 28 107 59 48 53 326 322 319 302 286 276 264 261 275 295 138 136 126 70 47 71 108 119 121 90 81 104 242 263 55 56 334 293 224 237 253 25 25 267 241 239 254 254 226 202 196 187 187 196 193 181 179 176 169 166 167 170 180 192 188 181 184 192 208 236 250 251 264 287 297 284 143 95 68 72 65 48 41 45
327 279 277 310 323 356 338 312 287 141 105 12 153 171 304 299 290 295 292 288 307 334 335 82 99 98 101 76 70 68 53 53 56 55 231 252 295 54 9 258 243 233 247 311 358 249 240 231 242 257 251 212 208 215 204 189 179 171 176 187 181 171 168 170 174 182 192 183 180 191 211 226 241 253 253 254 271 281 219 133 103 85 84 74 59 50 50
360 359 44 12 331 318 34 335 320 244 202 216 192 178 207 255 280 303 285 266 293 10 33 75 87 93 139 235 63 73 91 61 53 34 244 300 359 297 236 231 240 270 309 306 281 273 267 260 268 272 237 195 199 215 213 195 174 163 168 184 182 170 166 169 176 186 194 191 191 203 219 230 241 253 253 254 264 265 222 159 121 103 96 84 72 63 58
340 259 63 27 318 304 76 23 300 282 218 231 232 234 265 264 253 260 271 267 88 81 97 115 101 97 126 284 340 63 139 109 94 226 196 129 235 252 231 209 244 309 319 285 273 266 254 250 261 269 240 205 197 204 212 207 185 163 161 174 186 182 178 180 185 194 199 199 201 211 223 233 243 252 256 261 266 249 195 172 143 113 108 96 85 78 71
318 327 50 71 293 305 18 181 230 245 263 291 294 292 292 283 269 280 306 353 133 142 157 115 89 86 198 268 32 306 238 104 125 245 234 136 221 256 265 152 229 232 229 255 258 250 245 250 259 259 235 204 195 204 216 214 193 171 168 175 184 186 185 185 190 197 201 202 205 215 228 237 244 253 261 263 253 216 187 182 165 127 120 109 99 92 83
347 6 44 121 241 261 234 243 289 302 299 302 302 296 300 325 342 318 298 273 134 132 131 102 70 11 326 25 101 226 248 190 204 248 223 139 167 286 300 240 237 232 206 215 232 238 241 254 271 270 242 210 200 204 212 209 193 173 165 171 184 189 187 189 195 198 199 201 205 213 225 237 247 259 272 264 235 205 192 191 176 146 129 116 104 96 87
286 319 209 197 275 266 252 277 324 318 296 298 314 324 336 345 330 294 272 229 112 126 148 134 109 95 274 285 91 195 223 219 212 233 218 167 164 233 232 224 253 275 256 229 230 239 237 236 264 279 259 234 220 211 205 201 196 180 170 176 187 190 188 190 197 200 199 201 208 214 220 230 243 259 271 256 215 198 196 194 178 156 137 122 108 99 95
227 226 206 196 251 283 293 324 332 304 294 311 328 324 318 316 306 300 307 338 90 110 97 80 82 122 226 256 48 269 244 224 184 192 219 213 197 209 228 223 226 241 244 235 239 251 252 249 270 272 252 230 220 219 214 205 197 187 181 182 186 191 195 198 200 200 200 206 215 220 221 224 232 245 260 250 215 198 193 191 183 167 146 131 118 109 106
210 224 224 209 208 225 249 273 266 267 279 294 291 281 280 279 272 281 307 357 57 52 14 252 200 128 71 127 177 220 234 213 164 193 224 225 197 196 233 239 232 231 241 249 258 275 301 324 318 296 273 242 217 211 211 203 193 188 188 187 186 191 199 203 202 201 205 211 219 223 225 226 229 239 254 255 231 204 190 187 187 179 161 148 146 136 124
212 224 247 237 217 215 230 244 246 250 259 265 258 250 254 264 261 259 256 118 105 259 257 229 166 129 178 210 219 222 220 214 214 217 224 227 209 201 215 228 234 236 241 252 262 267 269 268 264 261 255 241 224 214 209 204 199 199 200 197 193 193 198 202 201 202 205 211 218 224 229 231 233 239 250 253 227 195 186 188 190 186 176 167 167 162 144